カタログに戻る

DEB KOSMOS-2566

運用中LEO
NORAD 54817·DEBRIS·🇷🇺 Russia
この衛星名は、まだ公式ソースで確認されていません。

打ち上げ Nov 30, 2022 から Plesetsk Cosmodrome

Loading…

次のパス (今後24時間)

TLE

古いSource: Space-Track

元期: Jun 17, 2026, 14:19 UTC

1 54817U 22163D   26168.59719526 -.00000064  00000-0  79126-5 0  9997
2 54817  67.1394 102.5189 0002956  88.3599 271.7825 13.97477984177542

AllMySatでDEB KOSMOS-2566をリアルタイム追跡

Download on the App Store